• în România
  • Lista ţărilor
  • Pe 7 zile
  • Temperatura apei
  • Hartă satelitară
  • Meteo pe hartă
  • Widget-uri
  • user-avatar
    Intrare

    Meteo pe oră la Dzhyakovo

    Astăzi, 25 Septembrie, Marţi

    Timp Temperatura Precipitaţii Vânt Presiune Umiditate
    00:00 +8°C° 0 mm 3 m/s 765 mmHg 63%
    01:00 +8°C° 0 mm 3 m/s 765 mmHg 63%
    02:00 +8°C° 0 mm 3 m/s 765 mmHg 65%
    03:00 +8°C° 0 mm 3 m/s 765 mmHg 66%
    04:00 +7°C° 0 mm 3 m/s 765 mmHg 67%
    05:00 +8°C° 0 mm 3 m/s 766 mmHg 65%
    06:00 +8°C° 0 mm 3 m/s 766 mmHg 63%
    07:00 +8°C° 0 mm 4 m/s 766 mmHg 61%
    08:00 +10°C° 0 mm 5 m/s 767 mmHg 55%
    09:00 +12°C° 0 mm 5 m/s 767 mmHg 48%
    10:00 +14°C° 0 mm 6 m/s 767 mmHg 41%
    11:00 +15°C° 0 mm 6 m/s 767 mmHg 38%
    12:00 +15°C° 0 mm 6 m/s 767 mmHg 35%
    13:00 +16°C° 0 mm 6 m/s 767 mmHg 32%
    14:00 +16°C° 0 mm 6 m/s 766 mmHg 32%
    15:00 +16°C° 0 mm 5 m/s 766 mmHg 32%
    16:00 +15°C° 0 mm 5 m/s 766 mmHg 32%
    17:00 +14°C° 0 mm 4 m/s 767 mmHg 36%
    18:00 +12°C° 0 mm 4 m/s 767 mmHg 40%
    19:00 +10°C° 0 mm 3 m/s 768 mmHg 45%
    20:00 +10°C° 0 mm 3 m/s 768 mmHg 47%
    21:00 +9°C° 0 mm 3 m/s 769 mmHg 50%
    22:00 +8°C° 0 mm 3 m/s 769 mmHg 52%
    23:00 +8°C° 0 mm 3 m/s 769 mmHg 54%

    Mâine, 26 Septembrie, Miercuri

    Timp Temperatura Precipitaţii Vânt Presiune Umiditate
    00:00 +7°C° 0 mm 3 m/s 770 mmHg 56%
    01:00 +7°C° 0 mm 2 m/s 770 mmHg 59%
    02:00 +7°C° 0 mm 2 m/s 770 mmHg 61%
    03:00 +6°C° 0 mm 2 m/s 770 mmHg 63%
    04:00 +6°C° 0 mm 2 m/s 770 mmHg 64%
    05:00 +6°C° 0 mm 2 m/s 770 mmHg 62%
    06:00 +8°C° 0 mm 1 m/s 770 mmHg 59%
    07:00 +9°C° 0 mm 1 m/s 771 mmHg 56%
    08:00 +11°C° 0 mm 1 m/s 771 mmHg 49%
    09:00 +13°C° 0 mm 1 m/s 771 mmHg 42%
    10:00 +15°C° 0 mm 2 m/s 771 mmHg 34%
    11:00 +16°C° 0 mm 2 m/s 770 mmHg 32%
    12:00 +17°C° 0 mm 2 m/s 770 mmHg 29%
    13:00 +18°C° 0 mm 2 m/s 769 mmHg 26%
    14:00 +19°C° 0 mm 1 m/s 769 mmHg 26%
    15:00 +19°C° 0 mm 1 m/s 768 mmHg 25%
    16:00 +19°C° 0 mm 1 m/s 768 mmHg 25%
    17:00 +16°C° 0 mm 1 m/s 768 mmHg 29%
    18:00 +14°C° 0 mm 1 m/s 768 mmHg 33%
    19:00 +12°C° 0 mm 1 m/s 768 mmHg 37%
    20:00 +11°C° 0 mm 1 m/s 769 mmHg 39%
    21:00 +11°C° 0 mm 1 m/s 769 mmHg 40%
    22:00 +10°C° 0 mm 1 m/s 769 mmHg 41%
    23:00 +10°C° 0 mm 1 m/s 769 mmHg 43%

    Poimâine, 27 Septembrie, Joi

    Timp Temperatura Precipitaţii Vânt Presiune Umiditate
    00:00 +9°C° 0 mm 1 m/s 769 mmHg 44%
    01:00 +9°C° 0 mm 1 m/s 769 mmHg 45%
    02:00 +9°C° 0 mm 1 m/s 768 mmHg 46%
    03:00 +8°C° 0 mm 1 m/s 768 mmHg 47%
    04:00 +8°C° 0 mm 1 m/s 767 mmHg 48%
    05:00 +9°C° 0 mm 1 m/s 767 mmHg 46%
    06:00 +10°C° 0 mm 1 m/s 767 mmHg 45%
    07:00 +10°C° 0 mm 1 m/s 767 mmHg 44%
    08:00 +13°C° 0 mm 1 m/s 767 mmHg 38%
    09:00 +15°C° 0 mm 1 m/s 767 mmHg 33%
    10:00 +19°C° 0 mm 1 m/s 767 mmHg 28%
    11:00 +20°C° 0 mm 1 m/s 766 mmHg 26%
    12:00 +21°C° 0 mm 1 m/s 766 mmHg 23%
    13:00 +22°C° 0 mm 1 m/s 765 mmHg 21%
    14:00 +22°C° 0 mm 1 m/s 765 mmHg 21%
    15:00 +22°C° 0 mm 1 m/s 764 mmHg 21%
    16:00 +22°C° 0 mm 1 m/s 764 mmHg 21%
    17:00 +20°C° 0 mm 1 m/s 764 mmHg 24%
    18:00 +16°C° 0 mm 0 m/s 763 mmHg 28%
    19:00 +14°C° 0 mm 0 m/s 763 mmHg 31%
    20:00 +13°C° 0 mm 0 m/s 763 mmHg 32%
    21:00 +13°C° 0 mm 0 m/s 763 mmHg 33%
    22:00 +13°C° 0 mm 0 m/s 763 mmHg 34%
    23:00 +12°C° 0 mm 0 m/s 763 mmHg 35%

    28 Septembrie, Vineri

    Timp Temperatura Precipitaţii Vânt Presiune Umiditate
    00:00 +12°C° 0 mm 0 m/s 762 mmHg 36%
    01:00 +11°C° 0 mm 0 m/s 762 mmHg 38%
    02:00 +11°C° 0 mm 0 m/s 762 mmHg 38%
    03:00 +11°C° 0 mm 0 m/s 761 mmHg 39%
    04:00 +10°C° 0 mm 0 m/s 761 mmHg 40%
    05:00 +11°C° 0 mm 0 m/s 760 mmHg 39%
    06:00 +12°C° 0 mm 0 m/s 760 mmHg 38%
    07:00 +13°C° 0 mm 0 m/s 760 mmHg 38%
    08:00 +16°C° 0 mm 1 m/s 760 mmHg 33%
    09:00 +19°C° 0 mm 1 m/s 760 mmHg 29%
    10:00 +22°C° 0 mm 1 m/s 759 mmHg 24%
    11:00 +23°C° 0 mm 1 m/s 759 mmHg 24%
    12:00 +24°C° 0 mm 1 m/s 758 mmHg 23%
    13:00 +25°C° 0 mm 2 m/s 758 mmHg 22%
    14:00 +25°C° 0 mm 1 m/s 757 mmHg 23%
    15:00 +25°C° 0 mm 1 m/s 757 mmHg 24%
    16:00 +25°C° 0 mm 1 m/s 756 mmHg 25%
    17:00 +23°C° 0 mm 1 m/s 756 mmHg 30%
    18:00 +21°C° 0 mm 1 m/s 756 mmHg 34%
    19:00 +18°C° 0 mm 1 m/s 756 mmHg 38%
    20:00 +18°C° 0 mm 1 m/s 756 mmHg 40%
    21:00 +16°C° 0 mm 1 m/s 756 mmHg 42%
    22:00 +15°C° 0 mm 1 m/s 756 mmHg 44%
    23:00 +15°C° 0 mm 1 m/s 756 mmHg 45%

    29 Septembrie, Sâmbătă

    Timp Temperatura Precipitaţii Vânt Presiune Umiditate
    00:00 +15°C° 0 mm 1 m/s 756 mmHg 46%
    01:00 +14°C° 0 mm 1 m/s 756 mmHg 47%
    02:00 +14°C° 0 mm 1 m/s 756 mmHg 48%
    03:00 +14°C° 0 mm 1 m/s 756 mmHg 50%
    04:00 +13°C° 0 mm 1 m/s 756 mmHg 51%
    05:00 +14°C° 0 mm 2 m/s 756 mmHg 51%
    06:00 +14°C° 0 mm 2 m/s 756 mmHg 51%
    07:00 +15°C° 0 mm 2 m/s 757 mmHg 50%
    08:00 +17°C° 0 mm 3 m/s 757 mmHg 46%
    09:00 +19°C° 0 mm 3 m/s 757 mmHg 41%
    10:00 +22°C° 0 mm 4 m/s 757 mmHg 37%
    11:00 +22°C° 0 mm 4 m/s 757 mmHg 36%
    12:00 +23°C° 0 mm 5 m/s 756 mmHg 35%
    13:00 +25°C° 0 mm 5 m/s 756 mmHg 34%
    14:00 +23°C° 0 mm 5 m/s 756 mmHg 35%
    15:00 +22°C° 0 mm 5 m/s 756 mmHg 37%
    16:00 +22°C° 0 mm 5 m/s 756 mmHg 39%
    17:00 +20°C° 0 mm 4 m/s 757 mmHg 43%
    18:00 +19°C° 0 mm 4 m/s 757 mmHg 48%
    19:00 +17°C° 0 mm 3 m/s 758 mmHg 52%
    20:00 +16°C° 0 mm 3 m/s 758 mmHg 54%
    21:00 +16°C° 0 mm 3 m/s 759 mmHg 55%
    22:00 +14°C° 0 mm 3 m/s 759 mmHg 56%
    23:00 +14°C° 0 mm 2 m/s 759 mmHg 57%

    30 Septembrie, Duminică

    Timp Temperatura Precipitaţii Vânt Presiune Umiditate
    00:00 +13°C° 0 mm 2 m/s 759 mmHg 58%
    01:00 +12°C° 0 mm 2 m/s 759 mmHg 58%
    02:00 +12°C° 0 mm 2 m/s 759 mmHg 60%
    03:00 +10°C° 0 mm 2 m/s 759 mmHg 62%
    04:00 +11°C° 0 mm 1 m/s 759 mmHg 63%
    05:00 +11°C° 0 mm 1 m/s 760 mmHg 62%
    06:00 +11°C° 0 mm 1 m/s 760 mmHg 61%
    07:00 +12°C° 0 mm 1 m/s 760 mmHg 60%
    08:00 +14°C° 0 mm 1 m/s 760 mmHg 53%
    09:00 +16°C° 0 mm 1 m/s 760 mmHg 47%
    10:00 +19°C° 0 mm 1 m/s 760 mmHg 40%
    11:00 +21°C° 0 mm 1 m/s 759 mmHg 38%
    12:00 +21°C° 0 mm 2 m/s 759 mmHg 35%
    13:00 +23°C° 0 mm 2 m/s 758 mmHg 33%
    14:00 +23°C° 0 mm 2 m/s 758 mmHg 33%
    15:00 +23°C° 0 mm 1 m/s 758 mmHg 33%
    16:00 +23°C° 0 mm 1 m/s 757 mmHg 33%
    17:00 +21°C° 0 mm 1 m/s 757 mmHg 37%
    18:00 +19°C° 0 mm 1 m/s 758 mmHg 41%
    19:00 +16°C° 0 mm 1 m/s 758 mmHg 46%
    20:00 +16°C° 0 mm 1 m/s 758 mmHg 48%
    21:00 +15°C° 0 mm 1 m/s 758 mmHg 50%
    22:00 +14°C° 0 mm 1 m/s 758 mmHg 51%
    23:00 +14°C° 0 mm 1 m/s 758 mmHg 53%
    Arată mai mult